Time,TemperatureF,DewpointF,PressureIn,WindDirection,WindDirectionDegrees,WindSpeedMPH,WindSpeedGustMPH,Humidity,HourlyPrecipIn,Conditions,Clouds,dailyrainin,SoftwareType,DateUTC
2013-01-05 00:00:00,59.2,56.0,30.27,NE,55,3.0,3.0,89,0.00,,,0.02,Wunderground v.1.13,2013-01-05 05:00:00,
2013-01-05 00:06:00,59.3,56.4,30.27,NNE,19,2.0,2.0,90,0.00,,,0.00,Wunderground v.1.13,2013-01-05 05:06:00,
2013-01-05 00:12:00,59.3,56.4,30.27,NNE,22,2.0,3.0,90,0.00,,,0.00,Wunderground v.1.13,2013-01-05 05:12:00,
2013-01-05 00:16:00,59.3,56.4,30.27,North,360,2.0,3.0,90,0.00,,,0.00,Wunderground v.1.13,2013-01-05 05:16:00,
2013-01-05 00:22:00,59.0,56.1,30.27,NNE,28,2.0,4.0,90,0.00,,,0.00,Wunderground v.1.13,2013-01-05 05:22:00,
2013-01-05 00:28:00,58.8,56.2,30.27,NNE,21,1.0,2.0,91,0.00,,,0.00,Wunderground v.1.13,2013-01-05 05:28:00,
2013-01-05 00:32:00,58.7,56.1,30.27,NNE,28,0.0,4.0,91,0.00,,,0.00,Wunderground v.1.13,2013-01-05 05:32:00,
2013-01-05 00:38:00,58.5,55.9,30.27,North,355,1.0,2.0,91,0.00,,,0.00,Wunderground v.1.13,2013-01-05 05:38:00,
2013-01-05 00:44:00,58.4,55.8,30.26,NE,40,2.0,3.0,91,0.00,,,0.00,Wunderground v.1.13,2013-01-05 05:44:00,
2013-01-05 00:50:00,58.4,56.1,30.26,NNE,26,2.0,2.0,92,0.00,,,0.00,Wunderground v.1.13,2013-01-05 05:50:00,
2013-01-05 00:56:00,58.3,56.0,30.26,NE,49,2.0,3.0,92,0.00,,,0.00,Wunderground v.1.13,2013-01-05 05:56:00,
2013-01-05 01:02:00,58.3,56.0,30.26,NE,51,3.0,6.0,92,0.00,,,0.00,Wunderground v.1.13,2013-01-05 06:02:00,
2013-01-05 01:08:00,58.3,56.0,30.26,NE,38,2.0,4.0,92,0.00,,,0.00,Wunderground v.1.13,2013-01-05 06:08:00,
2013-01-05 01:14:00,58.2,55.9,30.26,NE,45,2.0,2.0,92,0.00,,,0.00,Wunderground v.1.13,2013-01-05 06:14:00,
2013-01-05 01:20:00,58.1,55.8,30.26,NNE,22,2.0,4.0,92,0.00,,,0.00,Wunderground v.1.13,2013-01-05 06:20:00,
2013-01-05 01:26:00,58.1,55.8,30.27,NE,37,3.0,3.0,92,0.00,,,0.00,Wunderground v.1.13,2013-01-05 06:26:00,
2013-01-05 01:32:00,58.1,55.8,30.27,NE,45,3.0,5.0,92,0.00,,,0.00,Wunderground v.1.13,2013-01-05 06:32:00,
2013-01-05 01:38:00,58.0,55.7,30.26,NE,40,2.0,4.0,92,0.00,,,0.00,Wunderground v.1.13,2013-01-05 06:38:00,
2013-01-05 01:44:00,58.1,56.1,30.26,NE,36,1.0,1.0,93,0.00,,,0.00,Wunderground v.1.13,2013-01-05 06:44:00,
2013-01-05 01:50:00,58.1,56.1,30.26,NE,41,1.0,4.0,93,0.00,,,0.00,Wunderground v.1.13,2013-01-05 06:50:00,
2013-01-05 01:56:00,58.1,56.1,30.25,NE,50,1.0,3.0,93,0.00,,,0.00,Wunderground v.1.13,2013-01-05 06:56:00,
2013-01-05 02:02:00,57.9,55.9,30.26,NE,49,2.0,3.0,93,0.00,,,0.00,Wunderground v.1.13,2013-01-05 07:02:00,
2013-01-05 02:08:00,57.8,55.8,30.25,NNE,24,3.0,5.0,93,0.00,,,0.00,Wunderground v.1.13,2013-01-05 07:08:00,
2013-01-05 02:14:00,57.8,55.8,30.25,NNE,33,3.0,3.0,93,0.00,,,0.00,Wunderground v.1.13,2013-01-05 07:14:00,
2013-01-05 02:20:00,57.8,55.8,30.25,ENE,61,3.0,3.0,93,0.00,,,0.00,Wunderground v.1.13,2013-01-05 07:20:00,
2013-01-05 02:26:00,57.8,55.8,30.24,NE,48,3.0,4.0,93,0.00,,,0.00,Wunderground v.1.13,2013-01-05 07:26:00,
2013-01-05 02:32:00,57.8,55.8,30.25,NE,49,4.0,6.0,93,0.00,,,0.00,Wunderground v.1.13,2013-01-05 07:32:00,
2013-01-05 02:38:00,57.8,55.8,30.24,NE,51,4.0,4.0,93,0.00,,,0.00,Wunderground v.1.13,2013-01-05 07:38:00,
2013-01-05 02:44:00,57.8,55.8,30.25,NE,49,3.0,6.0,93,0.00,,,0.00,Wunderground v.1.13,2013-01-05 07:44:00,
2013-01-05 02:50:00,57.8,55.8,30.24,NE,46,4.0,7.0,93,0.00,,,0.00,Wunderground v.1.13,2013-01-05 07:50:00,
2013-01-05 02:56:00,57.9,55.9,30.24,ENE,61,4.0,5.0,93,0.00,,,0.00,Wunderground v.1.13,2013-01-05 07:56:00,
2013-01-05 03:02:00,57.9,56.2,30.24,NE,51,3.0,8.0,94,0.00,,,0.00,Wunderground v.1.13,2013-01-05 08:02:00,
2013-01-05 03:08:00,57.9,56.2,30.24,NE,55,3.0,4.0,94,0.00,,,0.00,Wunderground v.1.13,2013-01-05 08:08:00,
2013-01-05 03:14:00,57.8,56.1,30.24,NE,44,4.0,5.0,94,0.00,,,0.00,Wunderground v.1.13,2013-01-05 08:14:00,
2013-01-05 03:20:00,57.8,56.1,30.24,NE,45,4.0,5.0,94,0.00,,,0.00,Wunderground v.1.13,2013-01-05 08:20:00,
2013-01-05 03:26:00,57.8,56.1,30.24,NE,44,3.0,5.0,94,0.00,,,0.00,Wunderground v.1.13,2013-01-05 08:26:00,
2013-01-05 03:32:00,57.8,56.1,30.24,NE,53,3.0,3.0,94,0.00,,,0.00,Wunderground v.1.13,2013-01-05 08:32:00,
2013-01-05 03:38:00,57.8,56.1,30.24,NE,46,3.0,5.0,94,0.00,,,0.00,Wunderground v.1.13,2013-01-05 08:38:00,
2013-01-05 03:44:00,57.7,56.0,30.24,NE,48,3.0,5.0,94,0.00,,,0.00,Wunderground v.1.13,2013-01-05 08:44:00,
2013-01-05 03:50:00,57.7,56.0,30.24,NE,52,4.0,7.0,94,0.00,,,0.00,Wunderground v.1.13,2013-01-05 08:50:00,
2013-01-05 03:56:00,57.5,55.8,30.24,NE,56,4.0,4.0,94,0.00,,,0.00,Wunderground v.1.13,2013-01-05 08:56:00,
2013-01-05 04:02:00,57.5,55.8,30.24,ENE,73,3.0,9.0,94,0.00,,,0.00,Wunderground v.1.13,2013-01-05 09:02:00,
2013-01-05 04:08:00,57.5,55.8,30.24,NE,55,3.0,6.0,94,0.00,,,0.00,Wunderground v.1.13,2013-01-05 09:08:00,
2013-01-05 04:14:00,57.3,55.6,30.24,ENE,69,4.0,5.0,94,0.00,,,0.00,Wunderground v.1.13,2013-01-05 09:14:00,
2013-01-05 04:20:00,57.2,55.5,30.24,NE,55,4.0,4.0,94,0.00,,,0.00,Wunderground v.1.13,2013-01-05 09:20:00,
2013-01-05 04:26:00,57.0,55.3,30.24,ENE,75,4.0,6.0,94,0.00,,,0.00,Wunderground v.1.13,2013-01-05 09:26:00,
2013-01-05 04:32:00,57.1,55.7,30.24,NE,52,4.0,4.0,95,0.00,,,0.00,Wunderground v.1.13,2013-01-05 09:32:00,
2013-01-05 04:38:00,56.9,55.5,30.25,NE,56,3.0,5.0,95,0.00,,,0.00,Wunderground v.1.13,2013-01-05 09:38:00,
2013-01-05 04:44:00,56.9,55.5,30.25,NE,42,4.0,5.0,95,0.00,,,0.00,Wunderground v.1.13,2013-01-05 09:44:00,
2013-01-05 04:50:00,56.9,55.5,30.25,NE,53,4.0,5.0,95,0.00,,,0.00,Wunderground v.1.13,2013-01-05 09:50:00,
2013-01-05 04:56:00,56.9,55.5,30.25,NE,49,3.0,3.0,95,0.00,,,0.00,Wunderground v.1.13,2013-01-05 09:56:00,
2013-01-05 05:02:00,56.9,55.5,30.25,NE,41,2.0,9.0,95,0.00,,,0.00,Wunderground v.1.13,2013-01-05 10:02:00,
2013-01-05 05:08:00,56.8,55.4,30.25,NE,44,3.0,5.0,95,0.00,,,0.00,Wunderground v.1.13,2013-01-05 10:08:00,
2013-01-05 05:14:00,56.6,55.2,30.25,NE,53,5.0,6.0,95,0.00,,,0.00,Wunderground v.1.13,2013-01-05 10:14:00,
2013-01-05 05:20:00,56.5,55.1,30.25,NE,55,5.0,7.0,95,0.00,,,0.00,Wunderground v.1.13,2013-01-05 10:20:00,
2013-01-05 05:26:00,56.5,55.1,30.25,NE,52,4.0,5.0,95,0.00,,,0.00,Wunderground v.1.13,2013-01-05 10:26:00,
2013-01-05 05:32:00,56.4,55.0,30.25,NE,54,4.0,7.0,95,0.00,,,0.00,Wunderground v.1.13,2013-01-05 10:32:00,
2013-01-05 05:38:00,56.3,54.9,30.25,East,79,5.0,7.0,95,0.00,,,0.00,Wunderground v.1.13,2013-01-05 10:38:00,
2013-01-05 05:44:00,56.3,54.9,30.25,NE,45,5.0,9.0,95,0.00,,,0.00,Wunderground v.1.13,2013-01-05 10:44:00,
2013-01-05 05:50:00,56.3,54.9,30.25,NE,48,5.0,6.0,95,0.00,,,0.00,Wunderground v.1.13,2013-01-05 10:50:00,
2013-01-05 05:56:00,56.1,54.4,30.25,ENE,60,5.0,5.0,94,0.00,,,0.00,Wunderground v.1.13,2013-01-05 10:56:00,
2013-01-05 06:02:00,56.0,54.6,30.25,NE,53,5.0,6.0,95,0.00,,,0.00,Wunderground v.1.13,2013-01-05 11:02:00,
2013-01-05 06:08:00,56.0,54.6,30.25,NE,46,5.0,5.0,95,0.00,,,0.00,Wunderground v.1.13,2013-01-05 11:08:00,
2013-01-05 06:14:00,56.0,54.6,30.25,NE,53,4.0,5.0,95,0.00,,,0.00,Wunderground v.1.13,2013-01-05 11:14:00,
2013-01-05 06:20:00,56.0,54.6,30.25,NE,49,5.0,6.0,95,0.00,,,0.00,Wunderground v.1.13,2013-01-05 11:20:00,
2013-01-05 06:26:00,55.9,54.2,30.26,NE,49,5.0,6.0,94,0.00,,,0.00,Wunderground v.1.13,2013-01-05 11:26:00,
2013-01-05 06:32:00,55.9,54.2,30.26,NE,56,5.0,5.0,94,0.00,,,0.00,Wunderground v.1.13,2013-01-05 11:32:00,
2013-01-05 06:38:00,56.0,54.3,30.26,NE,42,4.0,5.0,94,0.00,,,0.00,Wunderground v.1.13,2013-01-05 11:38:00,
2013-01-05 06:44:00,56.1,54.1,30.26,NE,55,4.0,7.0,93,0.00,,,0.00,Wunderground v.1.13,2013-01-05 11:44:00,
2013-01-05 06:50:00,56.1,54.1,30.27,ENE,74,4.0,6.0,93,0.00,,,0.00,Wunderground v.1.13,2013-01-05 11:50:00,
2013-01-05 06:56:00,56.2,53.9,30.26,ENE,78,4.0,5.0,92,0.00,,,0.00,Wunderground v.1.13,2013-01-05 11:56:00,
2013-01-05 07:02:00,56.2,53.9,30.26,NE,55,3.0,11.0,92,0.00,,,0.00,Wunderground v.1.13,2013-01-05 12:02:00,
2013-01-05 07:08:00,56.2,53.6,30.27,NE,46,4.0,4.0,91,0.00,,,0.00,Wunderground v.1.13,2013-01-05 12:08:00,
2013-01-05 07:14:00,56.2,53.3,30.27,NE,53,4.0,4.0,90,0.00,,,0.00,Wunderground v.1.13,2013-01-05 12:14:00,
2013-01-05 07:20:00,56.1,53.2,30.27,NE,54,3.0,4.0,90,0.00,,,0.00,Wunderground v.1.13,2013-01-05 12:20:00,
2013-01-05 07:26:00,56.1,52.9,30.28,ENE,67,4.0,5.0,89,0.00,,,0.00,Wunderground v.1.13,2013-01-05 12:26:00,
2013-01-05 07:32:00,56.0,52.8,30.28,ENE,62,4.0,4.0,89,0.00,,,0.00,Wunderground v.1.13,2013-01-05 12:32:00,
2013-01-05 07:38:00,56.0,52.5,30.28,NE,42,4.0,5.0,88,0.00,,,0.00,Wunderground v.1.13,2013-01-05 12:38:00,
2013-01-05 07:44:00,55.9,52.1,30.28,ENE,74,4.0,5.0,87,0.00,,,0.00,Wunderground v.1.13,2013-01-05 12:44:00,
2013-01-05 07:50:00,56.0,52.2,30.28,ENE,57,4.0,5.0,87,0.00,,,0.00,Wunderground v.1.13,2013-01-05 12:50:00,
2013-01-05 07:56:00,56.0,52.2,30.29,NE,52,4.0,4.0,87,0.00,,,0.00,Wunderground v.1.13,2013-01-05 12:56:00,
2013-01-05 08:02:00,56.0,52.2,30.29,NE,53,4.0,9.0,87,0.00,,,0.00,Wunderground v.1.13,2013-01-05 13:02:00,
2013-01-05 08:08:00,55.9,52.1,30.29,NE,55,4.0,5.0,87,0.00,,,0.01,Wunderground v.1.13,2013-01-05 13:08:00,
2013-01-05 08:14:00,55.8,52.0,30.29,NE,54,4.0,4.0,87,0.00,,,0.01,Wunderground v.1.13,2013-01-05 13:14:00,
2013-01-05 08:20:00,55.7,51.9,30.29,NE,51,4.0,6.0,87,0.00,,,0.01,Wunderground v.1.13,2013-01-05 13:20:00,
2013-01-05 08:26:00,55.7,51.9,30.30,ENE,69,4.0,7.0,87,0.00,,,0.01,Wunderground v.1.13,2013-01-05 13:26:00,
2013-01-05 08:32:00,55.9,52.4,30.30,NE,47,4.0,6.0,88,0.00,,,0.01,Wunderground v.1.13,2013-01-05 13:32:00,
2013-01-05 08:38:00,55.9,52.4,30.30,NE,53,4.0,4.0,88,0.00,,,0.01,Wunderground v.1.13,2013-01-05 13:38:00,
2013-01-05 08:44:00,56.0,52.5,30.29,NE,46,4.0,7.0,88,0.00,,,0.01,Wunderground v.1.13,2013-01-05 13:44:00,
2013-01-05 08:50:00,56.1,52.6,30.29,NE,44,5.0,5.0,88,0.00,,,0.01,Wunderground v.1.13,2013-01-05 13:50:00,
2013-01-05 08:56:00,56.0,52.2,30.30,ENE,60,5.0,7.0,87,0.00,,,0.01,Wunderground v.1.13,2013-01-05 13:56:00,
2013-01-05 09:02:00,56.1,52.3,30.30,East,91,5.0,10.0,87,0.00,,,0.01,Wunderground v.1.13,2013-01-05 14:02:00,
2013-01-05 09:08:00,56.3,52.5,30.30,NE,49,4.0,5.0,87,0.00,,,0.01,Wunderground v.1.13,2013-01-05 14:08:00,
2013-01-05 09:14:00,56.3,52.8,30.30,NE,51,4.0,7.0,88,0.00,,,0.01,Wunderground v.1.13,2013-01-05 14:14:00,
2013-01-05 09:20:00,56.5,52.7,30.30,ENE,74,5.0,5.0,87,0.00,,,0.01,Wunderground v.1.13,2013-01-05 14:20:00,
2013-01-05 09:26:00,56.4,52.3,30.30,ENE,61,6.0,6.0,86,0.00,,,0.01,Wunderground v.1.13,2013-01-05 14:26:00,
2013-01-05 09:32:00,56.5,52.7,30.30,ENE,69,6.0,6.0,87,0.00,,,0.01,Wunderground v.1.13,2013-01-05 14:32:00,
2013-01-05 09:38:00,56.8,52.7,30.30,ENE,61,5.0,7.0,86,0.00,,,0.01,Wunderground v.1.13,2013-01-05 14:38:00,
2013-01-05 09:44:00,56.9,52.8,30.30,ENE,66,6.0,10.0,86,0.00,,,0.01,Wunderground v.1.13,2013-01-05 14:44:00,
2013-01-05 09:50:00,57.2,53.0,30.30,NE,49,5.0,6.0,86,0.00,,,0.01,Wunderground v.1.13,2013-01-05 14:50:00,
2013-01-05 09:56:00,57.5,53.3,30.30,ENE,57,6.0,10.0,86,0.00,,,0.01,Wunderground v.1.13,2013-01-05 14:56:00,
2013-01-05 10:02:00,57.7,53.2,30.29,NE,53,5.0,10.0,85,0.00,,,0.01,Wunderground v.1.13,2013-01-05 15:02:00,
2013-01-05 10:08:00,58.0,53.5,30.29,ENE,61,4.0,5.0,85,0.00,,,0.01,Wunderground v.1.13,2013-01-05 15:08:00,
2013-01-05 10:14:00,58.2,53.4,30.29,ENE,64,5.0,7.0,84,0.00,,,0.01,Wunderground v.1.13,2013-01-05 15:14:00,
2013-01-05 10:20:00,58.3,53.5,30.29,NE,49,6.0,10.0,84,0.00,,,0.01,Wunderground v.1.13,2013-01-05 15:20:00,
2013-01-05 10:26:00,58.2,53.4,30.29,ENE,68,6.0,7.0,84,0.00,,,0.01,Wunderground v.1.13,2013-01-05 15:26:00,
2013-01-05 10:32:00,58.7,53.5,30.29,ENE,62,5.0,5.0,83,0.00,,,0.01,Wunderground v.1.13,2013-01-05 15:32:00,
2013-01-05 10:38:00,58.9,53.7,30.29,ENE,63,6.0,10.0,83,0.00,,,0.01,Wunderground v.1.13,2013-01-05 15:38:00,
2013-01-05 10:44:00,59.1,53.9,30.28,ENE,67,4.0,5.0,83,0.00,,,0.01,Wunderground v.1.13,2013-01-05 15:44:00,
2013-01-05 10:50:00,59.5,54.3,30.29,East,80,3.0,4.0,83,0.00,,,0.01,Wunderground v.1.13,2013-01-05 15:50:00,
2013-01-05 10:56:00,59.6,54.1,30.28,ENE,63,3.0,6.0,82,0.00,,,0.01,Wunderground v.1.13,2013-01-05 15:56:00,
2013-01-05 11:02:00,59.7,54.5,30.29,ENE,69,4.0,12.0,83,0.00,,,0.01,Wunderground v.1.13,2013-01-05 16:02:00,
2013-01-05 11:08:00,60.2,54.7,30.28,NE,54,3.0,4.0,82,0.00,,,0.01,Wunderground v.1.13,2013-01-05 16:08:00,
2013-01-05 11:14:00,60.4,54.9,30.28,ENE,76,3.0,4.0,82,0.00,,,0.01,Wunderground v.1.13,2013-01-05 16:14:00,
2013-01-05 11:20:00,60.7,55.2,30.28,ENE,73,3.0,3.0,82,0.00,,,0.01,Wunderground v.1.13,2013-01-05 16:20:00,
2013-01-05 11:26:00,60.8,54.9,30.27,ENE,68,3.0,3.0,81,0.00,,,0.01,Wunderground v.1.13,2013-01-05 16:26:00,
2013-01-05 11:32:00,61.2,55.7,30.26,ENE,65,3.0,5.0,82,0.00,,,0.01,Wunderground v.1.13,2013-01-05 16:32:00,
2013-01-05 11:38:00,62.0,56.4,30.26,ENE,75,2.0,5.0,82,0.00,,,0.01,Wunderground v.1.13,2013-01-05 16:38:00,
2013-01-05 11:44:00,62.3,56.4,30.26,NE,56,2.0,2.0,81,0.00,,,0.01,Wunderground v.1.13,2013-01-05 16:44:00,
2013-01-05 11:50:00,62.7,56.8,30.25,ENE,57,2.0,2.0,81,0.00,,,0.01,Wunderground v.1.13,2013-01-05 16:50:00,
2013-01-05 11:56:00,63.0,57.1,30.25,ENE,60,2.0,4.0,81,0.00,,,0.01,Wunderground v.1.13,2013-01-05 16:56:00,
2013-01-05 12:02:00,63.3,57.0,30.25,NE,44,3.0,6.0,80,0.00,,,0.01,Wunderground v.1.13,2013-01-05 17:02:00,
2013-01-05 12:08:00,63.6,57.3,30.25,East,82,2.0,2.0,80,0.00,,,0.01,Wunderground v.1.13,2013-01-05 17:08:00,
2013-01-05 12:14:00,63.9,57.6,30.24,ENE,64,2.0,4.0,80,0.00,,,0.01,Wunderground v.1.13,2013-01-05 17:14:00,
2013-01-05 12:20:00,64.1,57.5,30.24,East,84,2.0,3.0,79,0.00,,,0.01,Wunderground v.1.13,2013-01-05 17:20:00,
2013-01-05 12:26:00,64.6,57.9,30.23,ENE,65,2.0,2.0,79,0.00,,,0.01,Wunderground v.1.13,2013-01-05 17:26:00,
2013-01-05 12:32:00,64.8,57.8,30.23,ENE,72,3.0,7.0,78,0.00,,,0.01,Wunderground v.1.13,2013-01-05 17:32:00,
2013-01-05 12:38:00,65.3,58.6,30.23,ENE,65,2.0,3.0,79,0.00,,,0.01,Wunderground v.1.13,2013-01-05 17:38:00,
2013-01-05 12:44:00,65.8,58.4,30.22,NE,50,2.0,4.0,77,0.00,,,0.01,Wunderground v.1.13,2013-01-05 17:44:00,
2013-01-05 12:50:00,66.1,58.7,30.22,NE,48,2.0,6.0,77,0.00,,,0.01,Wunderground v.1.13,2013-01-05 17:50:00,
2013-01-05 12:56:00,66.4,59.0,30.22,ENE,75,2.0,4.0,77,0.00,,,0.01,Wunderground v.1.13,2013-01-05 17:56:00,
2013-01-05 13:02:00,66.8,59.0,30.21,ENE,69,1.0,11.0,76,0.00,,,0.01,Wunderground v.1.13,2013-01-05 18:02:00,
2013-01-05 13:08:00,67.2,59.4,30.21,ENE,71,1.0,1.0,76,0.00,,,0.01,Wunderground v.1.13,2013-01-05 18:08:00,
2013-01-05 13:14:00,67.4,59.6,30.20,ENE,72,0.0,4.0,76,0.00,,,0.01,Wunderground v.1.13,2013-01-05 18:14:00,
2013-01-05 13:20:00,67.6,59.4,30.20,East,92,1.0,3.0,75,0.00,,,0.01,Wunderground v.1.13,2013-01-05 18:20:00,
2013-01-05 13:26:00,68.1,59.9,30.20,ENE,74,2.0,2.0,75,0.00,,,0.01,Wunderground v.1.13,2013-01-05 18:26:00,
2013-01-05 13:32:00,68.4,60.5,30.20,NE,44,1.0,1.0,76,0.00,,,0.01,Wunderground v.1.13,2013-01-05 18:32:00,
2013-01-05 13:38:00,68.9,60.3,30.20,ENE,67,0.0,7.0,74,0.00,,,0.01,Wunderground v.1.13,2013-01-05 18:38:00,
2013-01-05 13:44:00,69.0,60.4,30.20,ENE,67,1.0,1.0,74,0.00,,,0.01,Wunderground v.1.13,2013-01-05 18:44:00,
2013-01-05 13:50:00,69.2,60.6,30.20,ENE,63,0.0,1.0,74,0.00,,,0.01,Wunderground v.1.13,2013-01-05 18:50:00,
2013-01-05 13:56:00,69.4,60.4,30.19,ENE,63,0.0,0.0,73,0.00,,,0.01,Wunderground v.1.13,2013-01-05 18:56:00,
2013-01-05 14:02:00,70.0,61.3,30.19,ENE,63,0.0,7.0,74,0.00,,,0.01,Wunderground v.1.13,2013-01-05 19:02:00,
2013-01-05 14:08:00,70.4,61.3,30.19,ENE,60,0.0,0.0,73,0.00,,,0.01,Wunderground v.1.13,2013-01-05 19:08:00,
2013-01-05 14:14:00,70.4,60.9,30.19,NE,55,0.0,0.0,72,0.00,,,0.01,Wunderground v.1.13,2013-01-05 19:14:00,
2013-01-05 14:20:00,70.1,61.0,30.19,NE,55,0.0,0.0,73,0.00,,,0.01,Wunderground v.1.13,2013-01-05 19:20:00,
2013-01-05 14:26:00,70.1,61.0,30.19,NE,55,0.0,0.0,73,0.00,,,0.01,Wunderground v.1.13,2013-01-05 19:26:00,
2013-01-05 14:32:00,70.2,61.1,30.19,NE,55,0.0,0.0,73,0.00,,,0.01,Wunderground v.1.13,2013-01-05 19:32:00,
2013-01-05 14:38:00,70.2,61.1,30.19,NE,55,0.0,0.0,73,0.00,,,0.01,Wunderground v.1.13,2013-01-05 19:38:00,
2013-01-05 14:44:00,70.2,61.1,30.19,NE,55,0.0,0.0,73,0.00,,,0.01,Wunderground v.1.13,2013-01-05 19:44:00,
2013-01-05 14:50:00,70.1,61.0,30.19,NE,55,0.0,0.0,73,0.00,,,0.01,Wunderground v.1.13,2013-01-05 19:50:00,
2013-01-05 14:56:00,70.2,61.1,30.19,NE,55,0.0,0.0,73,0.00,,,0.01,Wunderground v.1.13,2013-01-05 19:56:00,
2013-01-05 15:02:00,70.3,60.8,30.19,NE,55,0.0,5.0,72,0.00,,,0.01,Wunderground v.1.13,2013-01-05 20:02:00,
2013-01-05 15:08:00,70.4,60.9,30.19,NE,55,0.0,0.0,72,0.00,,,0.01,Wunderground v.1.13,2013-01-05 20:08:00,
2013-01-05 15:14:00,70.5,61.4,30.19,NE,55,0.0,0.0,73,0.00,,,0.01,Wunderground v.1.13,2013-01-05 20:14:00,
2013-01-05 15:20:00,70.6,61.5,30.19,NE,55,0.0,0.0,73,0.00,,,0.01,Wunderground v.1.13,2013-01-05 20:20:00,
2013-01-05 15:26:00,70.6,61.5,30.19,NE,55,0.0,0.0,73,0.00,,,0.01,Wunderground v.1.13,2013-01-05 20:26:00,
2013-01-05 15:32:00,70.8,62.1,30.19,NE,55,0.0,0.0,74,0.00,,,0.01,Wunderground v.1.13,2013-01-05 20:32:00,
2013-01-05 15:38:00,70.9,62.2,30.19,NE,55,0.0,0.0,74,0.00,,,0.01,Wunderground v.1.13,2013-01-05 20:38:00,
2013-01-05 15:44:00,70.9,62.2,30.19,NE,55,0.0,0.0,74,0.00,,,0.01,Wunderground v.1.13,2013-01-05 20:44:00,
2013-01-05 15:50:00,70.9,62.2,30.20,NE,55,0.0,0.0,74,0.00,,,0.01,Wunderground v.1.13,2013-01-05 20:50:00,
2013-01-05 15:56:00,70.9,62.2,30.20,NE,55,0.0,0.0,74,0.00,,,0.01,Wunderground v.1.13,2013-01-05 20:56:00,
2013-01-05 16:02:00,70.8,62.1,30.20,NE,55,0.0,0.0,74,0.00,,,0.01,Wunderground v.1.13,2013-01-05 21:02:00,
2013-01-05 16:08:00,70.9,62.2,30.20,NE,55,0.0,0.0,74,0.00,,,0.01,Wunderground v.1.13,2013-01-05 21:08:00,
2013-01-05 16:14:00,70.9,62.6,30.20,NE,53,0.0,0.0,75,0.00,,,0.01,Wunderground v.1.13,2013-01-05 21:14:00,
2013-01-05 16:20:00,70.6,62.7,30.20,NE,42,0.0,0.0,76,0.00,,,0.01,Wunderground v.1.13,2013-01-05 21:20:00,
2013-01-05 16:26:00,70.1,62.6,30.20,NE,40,0.0,0.0,77,0.00,,,0.01,Wunderground v.1.13,2013-01-05 21:26:00,
2013-01-05 16:32:00,69.6,62.4,30.20,NE,41,0.0,0.0,78,0.00,,,0.01,Wunderground v.1.13,2013-01-05 21:32:00,
2013-01-05 16:38:00,69.2,62.4,30.20,NE,40,0.0,0.0,79,0.00,,,0.01,Wunderground v.1.13,2013-01-05 21:38:00,
2013-01-05 16:44:00,68.7,61.9,30.20,NE,38,0.0,0.0,79,0.00,,,0.01,Wunderground v.1.13,2013-01-05 21:44:00,
2013-01-05 16:50:00,68.3,61.9,30.20,NE,38,0.0,0.0,80,0.00,,,0.01,Wunderground v.1.13,2013-01-05 21:50:00,
2013-01-05 16:56:00,68.0,61.9,30.20,NE,38,0.0,0.0,81,0.00,,,0.01,Wunderground v.1.13,2013-01-05 21:56:00,
2013-01-05 17:02:00,67.8,61.8,30.20,NE,38,0.0,0.0,81,0.00,,,0.02,Wunderground v.1.13,2013-01-05 22:02:00,
2013-01-05 17:08:00,67.6,61.9,30.20,NE,38,0.0,0.0,82,0.00,,,0.02,Wunderground v.1.13,2013-01-05 22:08:00,
2013-01-05 17:14:00,67.4,61.7,30.20,NE,38,0.0,0.0,82,0.00,,,0.02,Wunderground v.1.13,2013-01-05 22:14:00,
2013-01-05 17:20:00,67.1,61.4,30.20,NE,38,0.0,0.0,82,0.00,,,0.02,Wunderground v.1.13,2013-01-05 22:20:00,
2013-01-05 17:26:00,66.8,61.1,30.20,NE,38,0.0,0.0,82,0.00,,,0.02,Wunderground v.1.13,2013-01-05 22:26:00,
2013-01-05 17:32:00,66.6,61.3,30.20,NE,38,0.0,0.0,83,0.00,,,0.02,Wunderground v.1.13,2013-01-05 22:32:00,
2013-01-05 17:38:00,66.5,61.2,30.21,NE,38,0.0,0.0,83,0.00,,,0.02,Wunderground v.1.13,2013-01-05 22:38:00,
2013-01-05 17:44:00,66.4,61.1,30.21,NE,38,0.0,0.0,83,0.00,,,0.02,Wunderground v.1.13,2013-01-05 22:44:00,
2013-01-05 17:50:00,66.3,61.0,30.21,NE,38,0.0,0.0,83,0.00,,,0.02,Wunderground v.1.13,2013-01-05 22:50:00,
2013-01-05 17:56:00,66.3,61.0,30.21,NE,38,0.0,0.0,83,0.00,,,0.02,Wunderground v.1.13,2013-01-05 22:56:00,
2013-01-05 18:02:00,66.3,61.0,30.21,NE,38,0.0,2.0,83,0.00,,,0.02,Wunderground v.1.13,2013-01-05 23:02:00,
2013-01-05 18:08:00,66.2,61.2,30.21,NE,38,0.0,0.0,84,0.00,,,0.02,Wunderground v.1.13,2013-01-05 23:08:00,
2013-01-05 18:14:00,66.2,61.2,30.21,NE,38,0.0,0.0,84,0.00,,,0.02,Wunderground v.1.13,2013-01-05 23:14:00,
2013-01-05 18:20:00,66.2,61.2,30.21,NE,38,0.0,0.0,84,0.00,,,0.02,Wunderground v.1.13,2013-01-05 23:20:00,
2013-01-05 18:26:00,66.2,61.2,30.21,NE,38,0.0,0.0,84,0.00,,,0.02,Wunderground v.1.13,2013-01-05 23:26:00,
2013-01-05 18:32:00,66.2,61.2,30.21,NE,38,0.0,0.0,84,0.00,,,0.02,Wunderground v.1.13,2013-01-05 23:32:00,
2013-01-05 18:40:00,66.2,61.2,30.21,NE,38,0.0,0.0,84,0.00,,,0.02,Wunderground v.1.13,2013-01-05 23:40:00,
2013-01-05 18:46:00,66.2,61.2,30.22,NE,38,0.0,0.0,84,0.00,,,0.02,Wunderground v.1.13,2013-01-05 23:46:00,
2013-01-05 18:52:00,66.3,61.3,30.22,NE,38,0.0,0.0,84,0.00,,,0.02,Wunderground v.1.13,2013-01-05 23:52:00,
2013-01-05 18:58:00,66.3,61.7,30.22,NE,38,0.0,0.0,85,0.00,,,0.02,Wunderground v.1.13,2013-01-05 23:58:00,
2013-01-05 19:04:00,66.3,61.7,30.22,NE,38,0.0,0.0,85,0.00,,,0.02,Wunderground v.1.13,2013-01-06 00:04:00,
2013-01-05 19:10:00,66.3,61.7,30.23,NE,38,0.0,0.0,85,0.00,,,0.02,Wunderground v.1.13,2013-01-06 00:10:00,
2013-01-05 19:16:00,66.2,61.6,30.23,NE,38,0.0,0.0,85,0.00,,,0.02,Wunderground v.1.13,2013-01-06 00:16:00,
2013-01-05 19:22:00,66.2,61.6,30.23,NE,38,0.0,0.0,85,0.00,,,0.02,Wunderground v.1.13,2013-01-06 00:22:00,
2013-01-05 19:28:00,66.2,61.6,30.23,NE,38,0.0,0.0,85,0.00,,,0.02,Wunderground v.1.13,2013-01-06 00:28:00,
2013-01-05 19:34:00,66.3,61.7,30.23,NE,38,0.0,0.0,85,0.00,,,0.02,Wunderground v.1.13,2013-01-06 00:34:00,
2013-01-05 19:40:00,66.3,61.7,30.23,NNE,33,1.0,5.0,85,0.00,,,0.02,Wunderground v.1.13,2013-01-06 00:40:00,
2013-01-05 19:46:00,66.3,61.7,30.23,NNE,33,1.0,1.0,85,0.00,,,0.02,Wunderground v.1.13,2013-01-06 00:46:00,
2013-01-05 19:52:00,66.2,61.6,30.23,NNE,33,0.0,1.0,85,0.00,,,0.02,Wunderground v.1.13,2013-01-06 00:52:00,
2013-01-05 19:58:00,66.1,61.5,30.23,NNE,20,0.0,3.0,85,0.00,,,0.02,Wunderground v.1.13,2013-01-06 00:58:00,
2013-01-05 20:04:00,65.9,61.3,30.23,North,360,1.0,4.0,85,0.00,,,0.02,Wunderground v.1.13,2013-01-06 01:04:00,
2013-01-05 20:10:00,65.9,61.3,30.23,North,5,0.0,1.0,85,0.00,,,0.02,Wunderground v.1.13,2013-01-06 01:10:00,
2013-01-05 20:16:00,65.9,61.3,30.23,North,360,0.0,0.0,85,0.00,,,0.02,Wunderground v.1.13,2013-01-06 01:16:00,
2013-01-05 20:22:00,65.9,61.3,30.23,North,360,0.0,0.0,85,0.00,,,0.02,Wunderground v.1.13,2013-01-06 01:22:00,
2013-01-05 20:28:00,65.9,61.3,30.23,North,360,0.0,0.0,85,0.00,,,0.02,Wunderground v.1.13,2013-01-06 01:28:00,
2013-01-05 20:34:00,65.9,61.3,30.23,NNE,15,0.0,3.0,85,0.00,,,0.02,Wunderground v.1.13,2013-01-06 01:34:00,
2013-01-05 20:40:00,65.9,61.3,30.23,NNE,15,0.0,0.0,85,0.00,,,0.02,Wunderground v.1.13,2013-01-06 01:40:00,
2013-01-05 20:46:00,65.8,61.2,30.23,NNE,15,0.0,0.0,85,0.00,,,0.02,Wunderground v.1.13,2013-01-06 01:46:00,
2013-01-05 20:52:00,65.6,61.3,30.23,NNE,15,0.0,3.0,86,0.00,,,0.02,Wunderground v.1.13,2013-01-06 01:52:00,
2013-01-05 20:58:00,65.4,61.1,30.23,NNE,16,0.0,0.0,86,0.00,,,0.02,Wunderground v.1.13,2013-01-06 01:58:00,
2013-01-05 21:04:00,65.3,61.0,30.23,NNE,16,0.0,5.0,86,0.00,,,0.02,Wunderground v.1.13,2013-01-06 02:04:00,
2013-01-05 21:10:00,65.1,60.8,30.23,NNE,16,0.0,0.0,86,0.00,,,0.02,Wunderground v.1.13,2013-01-06 02:10:00,
2013-01-05 21:16:00,65.0,61.0,30.23,NNE,15,1.0,2.0,87,0.00,,,0.02,Wunderground v.1.13,2013-01-06 02:16:00,
2013-01-05 21:22:00,64.9,60.9,30.23,NNE,16,0.0,1.0,87,0.00,,,0.02,Wunderground v.1.13,2013-01-06 02:22:00,
2013-01-05 21:28:00,64.8,60.8,30.23,NNE,16,0.0,0.0,87,0.00,,,0.02,Wunderground v.1.13,2013-01-06 02:28:00,
2013-01-05 21:34:00,64.8,60.8,30.23,NNE,15,0.0,0.0,87,0.00,,,0.02,Wunderground v.1.13,2013-01-06 02:34:00,
2013-01-05 21:40:00,64.8,60.8,30.23,NNE,16,0.0,0.0,87,0.00,,,0.02,Wunderground v.1.13,2013-01-06 02:40:00,
2013-01-05 21:46:00,64.7,61.1,30.23,NNE,16,0.0,0.0,88,0.00,,,0.02,Wunderground v.1.13,2013-01-06 02:46:00,
2013-01-05 21:52:00,64.8,61.2,30.23,NNE,15,0.0,0.0,88,0.00,,,0.02,Wunderground v.1.13,2013-01-06 02:52:00,
2013-01-05 21:58:00,64.8,61.2,30.23,NNE,16,0.0,0.0,88,0.00,,,0.02,Wunderground v.1.13,2013-01-06 02:58:00,
2013-01-05 22:04:00,64.8,61.2,30.23,NNE,15,0.0,3.0,88,0.00,,,0.02,Wunderground v.1.13,2013-01-06 03:04:00,
2013-01-05 22:10:00,64.7,61.1,30.24,NNE,16,0.0,0.0,88,0.00,,,0.02,Wunderground v.1.13,2013-01-06 03:10:00,
2013-01-05 22:16:00,64.7,61.1,30.23,NNE,16,0.0,0.0,88,0.00,,,0.02,Wunderground v.1.13,2013-01-06 03:16:00,
2013-01-05 22:22:00,64.7,61.1,30.23,NNE,16,0.0,1.0,88,0.00,,,0.02,Wunderground v.1.13,2013-01-06 03:22:00,
2013-01-05 22:28:00,64.7,61.1,30.23,NNE,16,0.0,0.0,88,0.00,,,0.02,Wunderground v.1.13,2013-01-06 03:28:00,
2013-01-05 22:34:00,64.7,61.1,30.23,NNE,15,0.0,0.0,88,0.00,,,0.02,Wunderground v.1.13,2013-01-06 03:34:00,
2013-01-05 22:40:00,64.8,61.2,30.23,NNE,16,0.0,0.0,88,0.00,,,0.02,Wunderground v.1.13,2013-01-06 03:40:00,
2013-01-05 22:46:00,64.8,61.2,30.23,NNE,15,0.0,0.0,88,0.00,,,0.02,Wunderground v.1.13,2013-01-06 03:46:00,
2013-01-05 22:52:00,64.7,61.1,30.23,NNE,16,0.0,0.0,88,0.00,,,0.02,Wunderground v.1.13,2013-01-06 03:52:00,
2013-01-05 22:58:00,64.6,61.0,30.23,NNE,16,0.0,0.0,88,0.00,,,0.02,Wunderground v.1.13,2013-01-06 03:58:00,
2013-01-05 23:04:00,64.5,60.9,30.23,NNE,16,0.0,0.0,88,0.00,,,0.02,Wunderground v.1.13,2013-01-06 04:04:00,
2013-01-05 23:10:00,64.4,61.1,30.23,NNE,15,0.0,0.0,89,0.00,,,0.02,Wunderground v.1.13,2013-01-06 04:10:00,
2013-01-05 23:16:00,64.4,61.1,30.22,NNE,15,0.0,0.0,89,0.00,,,0.02,Wunderground v.1.13,2013-01-06 04:16:00,
2013-01-05 23:22:00,64.3,61.0,30.22,NNE,16,0.0,0.0,89,0.00,,,0.02,Wunderground v.1.13,2013-01-06 04:22:00,
2013-01-05 23:28:00,64.2,61.2,30.22,NNE,15,0.0,0.0,90,0.00,,,0.02,Wunderground v.1.13,2013-01-06 04:28:00,
2013-01-05 23:34:00,64.2,61.2,30.22,NNE,16,0.0,0.0,90,0.00,,,0.02,Wunderground v.1.13,2013-01-06 04:34:00,
2013-01-05 23:40:00,64.2,61.2,30.22,NNE,16,0.0,3.0,90,0.00,,,0.02,Wunderground v.1.13,2013-01-06 04:40:00,
2013-01-05 23:46:00,64.2,61.2,30.21,NNE,16,1.0,3.0,90,0.00,,,0.02,Wunderground v.1.13,2013-01-06 04:46:00,
2013-01-05 23:52:00,64.2,61.2,30.21,NNE,16,1.0,2.0,90,0.00,,,0.02,Wunderground v.1.13,2013-01-06 04:52:00,
2013-01-05 23:58:00,64.1,61.1,30.21,NNE,26,1.0,3.0,90,0.00,,,0.02,Wunderground v.1.13,2013-01-06 04:58:00,